TimeEST,TemperatureF,Dew PointF,Humidity,Sea Level PressureIn,VisibilityMPH,Wind Direction,Wind SpeedMPH,Gust SpeedMPH,PrecipitationIn,Events,Conditions,WindDirDegrees,DateUTC
12:54 AM,48.0,36.0,63,30.19,10.0,SSW,10.4,-,N/A,,Overcast,200,2012-12-02 05:54:00
1:54 AM,48.0,36.0,63,30.18,10.0,South,11.5,-,N/A,,Overcast,190,2012-12-02 06:54:00
2:54 AM,48.0,36.0,63,30.17,10.0,South,9.2,-,N/A,,Overcast,190,2012-12-02 07:54:00
3:54 AM,46.9,36.0,66,30.13,10.0,South,11.5,-,N/A,,Overcast,190,2012-12-02 08:54:00
4:54 AM,48.0,37.0,66,30.11,10.0,South,13.8,20.7,N/A,,Overcast,190,2012-12-02 09:54:00
5:54 AM,46.9,36.0,66,30.11,9.0,South,13.8,21.9,N/A,,Overcast,190,2012-12-02 10:54:00
6:54 AM,46.9,36.0,66,30.08,9.0,South,10.4,18.4,N/A,,Overcast,190,2012-12-02 11:54:00
7:54 AM,48.0,37.0,66,30.07,8.0,South,8.1,-,0.00,Rain,Light Rain,190,2012-12-02 12:54:00
8:54 AM,48.0,39.0,71,30.05,6.0,SSW,11.5,19.6,0.00,Rain,Light Rain,200,2012-12-02 13:54:00
9:54 AM,48.9,41.0,74,30.03,7.0,SSW,16.1,23.0,0.01,Rain,Light Rain,200,2012-12-02 14:54:00
10:54 AM,50.0,42.1,74,30.00,9.0,SSW,17.3,21.9,0.01,Rain,Light Rain,210,2012-12-02 15:54:00
11:54 AM,52.0,43.0,71,29.96,9.0,SSW,15.0,20.7,0.00,,Overcast,200,2012-12-02 16:54:00
12:31 PM,51.8,44.6,76,29.94,10.0,SSW,15.0,23.0,0.00,,Overcast,200,2012-12-02 17:31:00
12:54 PM,53.1,45.0,74,29.93,10.0,SSW,15.0,23.0,0.00,Rain,Light Rain,210,2012-12-02 17:54:00
1:54 PM,52.0,46.9,83,29.92,9.0,SSW,15.0,-,0.02,Rain,Light Rain,210,2012-12-02 18:54:00
2:54 PM,51.1,48.0,89,29.91,6.0,SSW,13.8,21.9,0.05,Rain,Light Rain,210,2012-12-02 19:54:00
3:54 PM,51.1,48.0,89,29.93,8.0,SSW,15.0,-,0.06,Rain,Light Rain,210,2012-12-02 20:54:00
4:54 PM,51.1,48.9,92,29.93,10.0,SSW,8.1,-,0.00,,Overcast,210,2012-12-02 21:54:00
5:41 PM,51.8,48.2,88,29.93,10.0,WSW,8.1,-,N/A,,Overcast,240,2012-12-02 22:41:00
5:54 PM,53.1,50.0,89,29.95,10.0,WSW,11.5,-,N/A,,Overcast,240,2012-12-02 22:54:00
6:09 PM,53.6,50.0,88,29.94,10.0,WSW,12.7,-,N/A,,Overcast,250,2012-12-02 23:09:00
6:35 PM,53.6,51.8,94,29.96,2.5,West,9.2,-,N/A,,Overcast,260,2012-12-02 23:35:00
6:54 PM,53.1,51.1,93,29.98,2.5,West,9.2,-,0.01,Rain,Light Rain,260,2012-12-02 23:54:00
7:07 PM,53.6,51.8,94,29.97,4.0,WSW,10.4,-,0.00,Rain,Light Rain,250,2012-12-03 00:07:00
7:54 PM,53.1,51.1,93,30.00,8.0,West,10.4,-,0.02,,Overcast,260,2012-12-03 00:54:00
8:54 PM,52.0,50.0,93,30.02,8.0,West,10.4,-,N/A,,Overcast,260,2012-12-03 01:54:00
9:28 PM,51.8,50.0,94,30.02,7.0,WSW,9.2,-,N/A,,Overcast,250,2012-12-03 02:28:00
9:54 PM,52.0,50.0,93,30.04,8.0,West,9.2,-,N/A,,Overcast,260,2012-12-03 02:54:00
10:54 PM,48.9,46.0,90,30.06,9.0,NW,10.4,-,N/A,,Overcast,320,2012-12-03 03:54:00
11:40 PM,48.2,44.6,87,30.08,9.0,NW,8.1,-,N/A,,Overcast,320,2012-12-03 04:40:00
11:54 PM,48.0,45.0,89,30.10,9.0,WNW,9.2,-,N/A,,Overcast,300,2012-12-03 04:54:00